This is the latest recevied weather packets stored in our database for station/object KO4T-4. If no packets are shown the sender has not sent any weather packets the latest 10 day(s).
| Time | Temp. | Humidity | Pressure | Rain* | Wind** | Luminosity | Snow |
|---|---|---|---|---|---|---|---|
| 1777002004 | 18.89° C | 52% | 1014.4 hPa | 0 mm | - | - | - |
| 1777001703 | 19.44° C | 50% | 1014.4 hPa | 0 mm | - | - | - |
| 1777001404 | 20° C | 49% | 1014.4 hPa | 0 mm | - | - | - |
| 1777001103 | 20° C | 45% | 1014.5 hPa | 0 mm | - | - | - |
| 1777000804 | 20.56° C | 45% | 1014.4 hPa | 0 mm | - | - | - |
| 1777000503 | 20.56° C | 45% | 1014.5 hPa | 0 mm | - | - | - |
| 1777000204 | 21.11° C | 45% | 1014.5 hPa | 0 mm | - | - | - |
| 1776999903 | 21.11° C | 42% | 1014.5 hPa | 0 mm | - | - | - |
| 1776999604 | 21.67° C | 41% | 1014.6 hPa | 0 mm | - | - | - |
| 1776999303 | 21.67° C | 40% | 1014.6 hPa | 0 mm | - | - | - |
| 1776999004 | 22.22° C | 40% | 1014.7 hPa | 0 mm | - | - | - |
| 1776998704 | 22.22° C | 40% | 1014.6 hPa | 0 mm | - | - | - |
| 1776998404 | 22.22° C | 39% | 1014.6 hPa | 0 mm | - | - | - |
| 1776998104 | 22.22° C | 39% | 1014.5 hPa | 0 mm | - | - | - |
| 1776997803 | 22.22° C | 39% | 1014.6 hPa | 0 mm | - | - | - |
| 1776997504 | 22.22° C | 39% | 1014.5 hPa | 0 mm | - | - | - |
| 1776997205 | 22.22° C | 39% | 1014.5 hPa | 0 mm | - | - | - |
| 1776996904 | 22.78° C | 39% | 1014.5 hPa | 0 mm | - | - | - |
| 1776996604 | 22.78° C | 39% | 1014.5 hPa | 0 mm | - | - | - |
| 1776996303 | 22.22° C | 40% | 1014.5 hPa | 0 mm | - | - | - |
| 1776996004 | 22.22° C | 42% | 1014.5 hPa | 0 mm | - | - | - |
| 1776995704 | 21.67° C | 41% | 1014.5 hPa | 0 mm | - | - | - |
| 1776995404 | 21.67° C | 43% | 1014.5 hPa | 0 mm | - | - | - |
| 1776995104 | 21.11° C | 43% | 1014.4 hPa | 0 mm | - | - | - |
| 1776994804 | 21.11° C | 44% | 1014.5 hPa | 0 mm | - | - | - |
* Rain latest hour (hover to see other rain measurements)
** Current wind speed in m/s (hover to see current wind gust speed)